Stations météo

réclame
Mon MeteoGroup
Leuchars, Grande-Bretagne (3171): Température de l'air & dewpoint: 17.10.2017 15:00:00 - 23.10.2017 15:00:00 (BST)Leuchars, Grande-Bretagne (3171): Température de l'air -20cm & Température de l'air -100cm: 17.10.2017 15:00:00 - 23.10.2017 15:00:00 (BST)Leuchars, Grande-Bretagne (3171): Vitesse du vent & gusts: 17.10.2017 15:00:00 - 23.10.2017 15:00:00 (BST)Leuchars, Grande-Bretagne (3171): Direction du vent: 17.10.2017 15:00:00 - 23.10.2017 15:00:00 (BST)Leuchars, Grande-Bretagne (3171): reduced air pressure: 17.10.2017 15:00:00 - 23.10.2017 15:00:00 (BST)Leuchars, Grande-Bretagne (3171): visibility: 17.10.2017 15:00:00 - 23.10.2017 15:00:00 (BST)Leuchars, Grande-Bretagne (3171): Ensoleillement: 17.10.2017 15:00:00 - 23.10.2017 15:00:00 (BST)Leuchars, Grande-Bretagne (3171): Quantités de précipitations: 17.10.2017 15:00:00 - 23.10.2017 15:00:00 (BST)
Date & Time tt [°C] td [°C] tt -20cm [°C] tt -100cm [°C] ff [km/h] ff [knt] fx [km/h] fx [knt] dd ppp [hPa] vv [km] sd [min] rr [mm]
23.10.2017 15:00:00 13,0 13,0 - - 15 8 - - SW - 5 - -
23.10.2017 14:00:00 14,0 12,0 - - 16 9 - - WSW - 7 - -
23.10.2017 13:00:00 - - - - - - - - - - - - -
23.10.2017 12:00:00 13,0 11,0 - - 18 10 - - S - 10 - -
23.10.2017 11:00:00 12,0 10,0 - - 11 6 - - SSE - 10 - -
23.10.2017 10:00:00 - - - - - - - - - - - - -
23.10.2017 09:00:00 8,0 8,0 - - 4 2 - - SE - 10 - -
23.10.2017 08:00:00 - - - - - - - - - - - - -
23.10.2017 07:00:00 - - - - - - - - - - - - -
23.10.2017 06:00:00 6,0 4,0 - - 0 0 - - N - 10 - -
23.10.2017 05:00:00 - - - - - - - - - - - - -
23.10.2017 04:00:00 7,0 4,0 - - 11 6 - - W - 10 - -
23.10.2017 03:00:00 7,0 4,0 - - 13 7 - - W - 10 - -
23.10.2017 02:00:00 6,0 4,0 - - 8 4 - - W - 10 - -
23.10.2017 01:00:00 6,0 4,0 - - 16 9 - - WSW - 10 - -
23.10.2017 00:00:00 - - - - - - - - - - - - -
22.10.2017 23:00:00 7,0 6,0 - - 18 10 - - W - 10 - -
22.10.2017 22:00:00 9,0 6,0 - - 18 10 - - W - 10 - -
22.10.2017 21:00:00 9,0 6,0 - - 18 10 - - W - 10 - -
22.10.2017 20:00:00 10,0 7,0 - - 21 11 - - W - 10 - -
22.10.2017 19:00:00 11,0 7,0 - - 21 11 - - W - 10 - -
22.10.2017 18:00:00 12,0 8,0 - - 13 7 - - W - 10 - -
22.10.2017 17:00:00 14,0 8,0 - - 24 13 - - WNW - 10 - -
22.10.2017 16:00:00 13,0 9,0 - - 24 13 - - NW - 10 - -
22.10.2017 15:00:00 - - - - - - - - - - - - -
22.10.2017 14:00:00 14,6 9,5 - - 22 12 - - WNW 1003,8 10 42 0,0
22.10.2017 13:00:00 14,4 9,7 - - 22 12 - - WNW 1002,9 10 24 0,0
22.10.2017 12:00:00 13,1 9,4 - - 22 12 - - WNW 1002,0 10 0 0,0
22.10.2017 11:00:00 13,0 9,2 - - 26 14 - - WNW 1000,8 10 12 0,0
22.10.2017 10:00:00 12,2 8,8 10,5 12,0 26 14 - - WNW 999,7 10 18 0,0
22.10.2017 09:00:00 11,4 8,6 - - 22 12 - - WNW 998,7 10 0 0,0
22.10.2017 08:00:00 11,1 8,8 - - 21 11 - - WNW 997,6 10 0 0,0
22.10.2017 07:00:00 10,4 8,3 - - 16 9 - - WNW 996,6 10 0 0,0
22.10.2017 06:00:00 10,4 8,5 - - 18 10 - - WNW 995,5 10 0 0,0
22.10.2017 05:00:00 10,7 8,9 - - 21 11 - - WNW 994,6 10 0 0,0
22.10.2017 04:00:00 11,0 9,5 - - 11 6 - - WNW 994,0 10 0 -
22.10.2017 03:00:00 10,5 9,9 - - 9 5 - - WNW 993,3 10 0 0,0
22.10.2017 02:00:00 10,5 9,8 - - 9 5 - - WNW 992,8 10 0 0,0
22.10.2017 01:00:00 10,9 10,3 - - 8 4 - - WNW 992,2 10 - 0,2
22.10.2017 00:00:00 10,8 10,2 - - 8 4 - - NNW 991,7 10 0 0,0
21.10.2017 23:00:00 10,4 9,8 - - 5 3 - - N 991,3 10 0 0,0
21.10.2017 22:00:00 10,7 10,0 - - 4 2 - - N 990,7 10 0 0,0
21.10.2017 21:00:00 11,2 9,7 - - 8 4 - - ESE 990,1 10 0 0,0
21.10.2017 20:00:00 11,9 10,1 - - 15 8 - - ESE 989,6 10 0 0,0
21.10.2017 19:00:00 12,4 10,5 - - 13 7 - - SE 989,4 10 0 0,0
21.10.2017 18:00:00 12,8 10,6 - - 18 10 - - SE 988,8 10 0 0,0
21.10.2017 17:00:00 13,0 10,5 - - 21 11 - - SE 988,6 10 0 0,0
21.10.2017 16:00:00 13,2 10,6 - - 21 11 - - ESE 988,9 10 0 0,0
21.10.2017 15:00:00 13,6 10,7 - - 24 13 - - SE 989,0 10 36 0,0
21.10.2017 14:00:00 13,8 10,4 - - 26 14 - - SSE 989,0 10 42 0,0
21.10.2017 13:00:00 14,2 10,6 - - 24 13 - - SSE 989,3 10 60 0,0
21.10.2017 12:00:00 13,9 10,3 - - 28 15 - - SSE 989,9 10 60 0,0
21.10.2017 11:00:00 13,6 10,9 - - 18 10 - - SSE 990,4 10 42 0,0
21.10.2017 10:00:00 11,8 10,6 10,7 12,0 22 12 - - SE 990,9 10 0 0,0
21.10.2017 09:00:00 11,3 10,3 - - 21 11 - - SE 991,4 10 0 0,0
21.10.2017 08:00:00 11,1 10,1 - - 21 11 - - SE 991,9 10 0 0,0
21.10.2017 07:00:00 10,8 9,6 - - 21 11 - - SE 992,5 10 0 -
21.10.2017 06:00:00 10,7 9,6 - - 18 10 - - SSE 992,6 10 0 -
21.10.2017 05:00:00 10,3 9,5 - - 16 9 - - SE 993,4 10 0 -
21.10.2017 04:00:00 10,1 9,6 - - 18 10 - - SE 994,1 3,4 0 -
21.10.2017 03:00:00 10,5 9,6 - - 22 12 - - SE 994,7 2,9 0 -
21.10.2017 02:00:00 11,7 9,7 - - 24 13 - - SE 995,6 10 0 -
21.10.2017 01:00:00 11,3 9,6 - - 13 7 - - SSE 997,0 10 - -
21.10.2017 00:00:00 11,7 9,4 - - 16 9 - - ESE 997,9 10 0 -
20.10.2017 23:00:00 11,3 9,1 - - 4 2 - - SSE 998,8 10 0 -
20.10.2017 22:00:00 11,4 9,6 - - 13 7 - - S 999,5 10 0 -
20.10.2017 21:00:00 12,5 10,9 - - 9 5 - - S 999,6 10 0 0,0
20.10.2017 20:00:00 12,4 11,5 - - 15 8 - - SSE 1000,6 10 0 0,0
20.10.2017 19:00:00 11,4 11,1 - - 5 3 - - E 1000,5 8 0 0,0
20.10.2017 18:00:00 11,7 10,7 - - 2 1 - - ENE 1000,6 10 0 0,0
20.10.2017 17:00:00 13,5 11,4 - - 5 3 - - E 1000,5 10 6 0,0
20.10.2017 16:00:00 13,2 11,4 - - 9 5 - - ESE 1000,8 10 24 0,0
20.10.2017 15:00:00 15,6 11,0 - - 9 5 - - E 1000,4 10 60 0,0
20.10.2017 14:00:00 16,4 11,0 - - 8 4 - - S 999,9 10 60 0,0
20.10.2017 13:00:00 15,4 11,7 - - 8 4 - - NW 999,8 10 60 0,0
20.10.2017 12:00:00 13,9 11,8 - - 9 5 - - W 999,7 10 48 0,0
20.10.2017 11:00:00 12,0 11,5 - - 11 6 - - W 999,2 9 0 0,0
20.10.2017 10:00:00 12,3 12,0 10,5 12,0 16 9 - - W 998,7 5 0 0,0
20.10.2017 09:00:00 11,3 11,2 - - 5 3 - - W 997,9 9 0 0,0
20.10.2017 08:00:00 11,1 11,1 - - 8 4 - - WNW 997,2 10 0 0,0
20.10.2017 07:00:00 10,5 10,3 - - 9 5 - - S 996,4 8 0 0,0
20.10.2017 06:00:00 11,3 11,1 - - 4 2 - - W 995,7 10 0 0,0
20.10.2017 05:00:00 11,6 11,4 - - 5 3 - - WSW 995,2 10 0 0,2
20.10.2017 04:00:00 11,9 11,7 - - 9 5 - - WSW 995,1 10 0 0,0
20.10.2017 03:00:00 12,3 12,1 - - 13 7 - - W 994,8 4,6 0 0,0
20.10.2017 02:00:00 12,4 12,1 - - 15 8 - - WSW 994,4 7 0 0,0
20.10.2017 01:00:00 12,6 12,5 - - 11 6 - - S 994,3 5 - 0,2
20.10.2017 00:00:00 12,6 12,6 - - 15 8 - - E 994,5 3,2 0 0,6
19.10.2017 23:00:00 12,4 12,4 - - 16 9 - - ENE 995,2 3,5 0 7,4
19.10.2017 22:00:00 12,3 12,1 - - 13 7 - - E 996,5 3,0 0 2,0
19.10.2017 21:00:00 12,2 12,1 - - 18 10 - - E 997,5 3,5 0 0,6
19.10.2017 20:00:00 12,2 12,0 - - 16 9 - - ESE 998,3 4,5 0 2,0
19.10.2017 19:00:00 12,1 11,6 - - 9 5 - - E 999,1 4,0 0 0,6
19.10.2017 18:00:00 12,2 11,6 - - 13 7 - - E 999,4 4,5 0 0,2
19.10.2017 17:00:00 12,4 11,3 - - 11 6 - - E 1000,1 7 0 0,0
19.10.2017 16:00:00 12,7 11,6 - - 11 6 - - E 1000,6 10 0 0,0
19.10.2017 15:00:00 12,9 11,0 - - 16 9 - - E 1000,9 10 0 0,0
19.10.2017 14:00:00 13,8 10,7 - - 13 7 - - SE 1001,4 10 24 0,0
19.10.2017 13:00:00 13,1 10,6 - - 16 9 - - E 1002,3 10 0 0,0
19.10.2017 12:00:00 13,4 10,7 - - 4 2 - - ESE 1002,8 10 6 0,0
19.10.2017 11:00:00 12,7 10,6 - - 8 4 - - SE 1003,2 10 0 0,0
19.10.2017 10:00:00 12,0 10,4 10,2 12,0 11 6 - - SE 1003,1 10 6 0,0
19.10.2017 09:00:00 11,3 10,1 - - 9 5 - - ESE 1003,6 10 0 0,0
19.10.2017 08:00:00 11,0 10,0 - - 9 5 - - SE 1003,8 10 0 0,0
19.10.2017 07:00:00 11,3 10,0 - - 15 8 - - SE 1004,1 10 0 0,0
19.10.2017 06:00:00 11,6 10,1 - - 11 6 - - ESE 1004,6 10 0 0,0
19.10.2017 05:00:00 11,5 9,9 - - 13 7 - - SE 1005,1 10 0 0,0
19.10.2017 04:00:00 11,5 9,7 - - 11 6 - - SE 1005,8 10 0 0,0
19.10.2017 03:00:00 11,5 9,7 - - 18 10 - - SE 1006,5 10 0 0,0
19.10.2017 02:00:00 11,4 9,9 - - 18 10 - - SSE 1007,2 10 0 0,0
19.10.2017 01:00:00 11,4 10,1 - - 18 10 - - SE 1007,7 10 - 0,0
19.10.2017 00:00:00 10,9 10,1 - - 16 9 - - SE 1008,6 10 0 0,0
18.10.2017 23:00:00 10,9 9,0 - - 16 9 - - SE 1009,5 20 0 0,0
18.10.2017 22:00:00 10,6 8,0 - - 16 9 - - SE 1010,1 10 0 0,0
18.10.2017 21:00:00 10,5 7,6 - - 16 9 - - SE 1010,5 10 0 0,0
18.10.2017 20:00:00 10,3 7,1 - - 18 10 - - SE 1011,0 27 0 0,0
18.10.2017 19:00:00 10,6 7,1 - - 18 10 - - ESE 1011,4 29 0 0,0
18.10.2017 18:00:00 10,2 6,8 - - 18 10 - - ESE 1011,9 10 0 0,0
18.10.2017 17:00:00 10,7 7,0 - - 18 10 - - E 1012,2 10 0 0,0
18.10.2017 16:00:00 10,9 7,1 - - 18 10 - - E 1013,0 10 6 0,0
18.10.2017 15:00:00 11,3 6,6 - - 21 11 - - E 1013,4 10 48 0,0
18.10.2017 14:00:00 11,6 6,9 - - 22 12 - - E 1013,8 10 0 0,0
18.10.2017 13:00:00 11,2 7,2 - - 21 11 - - E 1014,6 10 0 0,0
18.10.2017 12:00:00 11,5 7,9 - - 18 10 - - ENE 1014,9 10 6 0,0
18.10.2017 11:00:00 10,2 7,5 - - 16 9 - - NE 1015,3 10 0 0,0
18.10.2017 10:00:00 10,1 7,2 10,5 12,0 15 8 - - E 1015,4 9 0 0,0
18.10.2017 09:00:00 9,5 6,3 - - 16 9 - - NE 1015,5 10 0 0,0
18.10.2017 08:00:00 9,2 6,3 - - 13 7 - - NE 1015,1 10 0 0,0
18.10.2017 07:00:00 9,0 6,3 - - 15 8 - - NE 1015,1 10 0 0,0
18.10.2017 06:00:00 9,1 6,3 - - 13 7 - - NE 1015,3 10 0 0,0
18.10.2017 05:00:00 8,9 6,3 - - 13 7 - - NE 1015,5 10 0 0,0
18.10.2017 04:00:00 9,3 6,5 - - 11 6 - - NE 1015,6 10 0 0,0
18.10.2017 03:00:00 9,2 6,7 - - 11 6 - - NE 1015,7 10 0 0,0
18.10.2017 02:00:00 9,1 7,1 - - 9 5 - - NE 1015,8 10 0 0,0
18.10.2017 01:00:00 9,5 7,0 - - 13 7 - - NNE 1015,6 10 - 0,0
18.10.2017 00:00:00 10,2 7,1 - - 13 7 - - NE 1015,6 10 0 0,0
17.10.2017 23:00:00 10,4 7,4 - - 11 6 - - NE 1015,0 10 0 0,0
17.10.2017 22:00:00 10,7 7,3 - - 11 6 - - NE 1014,6 10 0 0,0
17.10.2017 21:00:00 11,1 7,2 - - 13 7 - - NE 1013,7 10 0 0,0
17.10.2017 20:00:00 11,1 7,8 - - 16 9 - - NE 1013,0 10 0 0,0
17.10.2017 19:00:00 11,9 8,4 - - 9 5 - - NNE 1012,0 10 0 0,0
17.10.2017 18:00:00 12,8 10,1 - - 9 5 - - NW 1010,6 10 0 0,0
17.10.2017 17:00:00 12,8 11,0 - - 15 8 - - W 1009,1 10 0 0,2
17.10.2017 16:00:00 14,3 9,9 - - 29 16 50 27 W 1008,0 10 0 0,0
17.10.2017 15:00:00 14,5 9,6 - - 35 19 54 29 W 1006,7 10 12 0,0

tt = Température de l'air
td = dewpoint
tt -20cm = Température de l'air -20cm
tt -100cm = Température de l'air -100cm
ff = Vitesse du vent
fx = gusts
dd = Direction du vent
ppp = reduced air pressure
vv = visibility
sd = Ensoleillement
rr = Quantités de précipitations

stations d'obs. à proximité